Regional Weather Roundup
Issued by NWS Northern Indiana

Home | Current Version | Previous Version | Text Only | Print | Product List | Glossary On
Versions: 1 2 3 4 5 6 7 8 9 10 11 12 13 14 15 16 17 18 19 20 21 22 23 24 25 26 27 28 29 30 31 32 33 34 35 36 37 38 39 40 41 42 43 44 45 46 47 48 49 50
000
ASUS43 KIWX 290800
RWRIWX

KIWX WEATHER ROUNDUP
NATIONAL WEATHER SERVICE NORTHERN INDIANA
300 AM EST SAT NOV 29 2014

NOTE: "FAIR" INDICATES FEW OR NO CLOUDS BELOW 12,000 FEET WITH NO
SIGNIFICANT WEATHER AND/OR OBSTRUCTIONS TO VISIBILITY.

* THESE STATIONS ARE NOT UNDER NWS QUALITY CONTROL. THEY ALSO MAY NOT
  REPORT WEATHER SUCH AS PRECIPITATION OR FOG.

INZ001>027-290900-
NORTHERN INDIANA

CITY           SKY/WX    TMP DP  RH WIND       PRES   REMARKS
SOUTH BEND     MOCLDY    33  25  72 S10       29.92F WCI  25
GOSHEN         MOCLDY    33  23  66 S14       29.94F WCI  23
ANGOLA*        PTCLDY    28  14  54 S5        29.97F WCI  23
FORT WAYNE     PTCLDY    29  21  72 SE6       29.99F WCI  23
PERU/GRISSOM   PTCLDY    31  27  83 S8        29.94F WCI  24

$$
INZ028>050-290900-
CENTRAL INDIANA

CITY           SKY/WX    TMP DP  RH WIND       PRES   REMARKS
LAFAYETTE      PTCLDY    31  25  78 S5        29.93F WCI  26
KOKOMO*        PTCLDY    30  21  69 S12       29.95F WCI  21
MUNCIE*        PTCLDY    35  22  58 S14G21    29.97F WCI  26
INDIANAPOLIS   PTCLDY    30  23  75 SE9       29.96F WCI  22

$$
MIZ043>046-050>051-056>058-064>065-071>073-077>080-290900-
SOUTHWEST LOWER MICHIGAN

CITY           SKY/WX    TMP DP  RH WIND       PRES   REMARKS
BATTLE CREEK   MIX PCPN  32  21  64 S9        29.94F WCI  24
BENTON HARBOR  MOCLDY    30  24  78 SE9       29.90F WCI  22
COLDWATER*     FLURRIES  32  24  72 MISG      29.96S
HILLSDALE*     FLURRIES  30  22  74 S6        29.97S WCI  24
HOLLAND        CLOUDY    32  24  72 SE7       29.91F WCI  26
GRAND RAPIDS   MIX PCPN  30  25  81 SE7       29.94S WCI  23
KALAMAZOO      CLOUDY    32  23  69 S7        29.94F WCI  26
STURGIS*       CLOUDY    30  23  74 SE9       29.94F WCI  22
THREE RIVERS*  FAIR      32  24  73 S7        29.95R WCI  26

$$
OHZ001>008-015>018-024>025-290900-
NORTHWEST OHIO

CITY           SKY/WX    TMP DP  RH WIND       PRES   REMARKS
DEFIANCE       CLOUDY    33  22  63 S6        30.02S WCI  28
FINDLAY        CLOUDY    33  21  61 SE8       30.03R WCI  26
TOLEDO EXPRESS CLOUDY    31  22  69 CALM      30.03S
TOLEDO METCALF CLOUDY    31  22  69 SE7       30.05S WCI  24
LIMA           CLOUDY    34  20  56 S13       30.03R WCI  25

$$
AND FOR LAKE MICHIGAN COASTAL AND OPEN LAKE BUOY OBSERVATIONS

STATION/POSITION TEMP    WIND        PRES    VSBY  WAVE
                 AIR SEA DIR/SP/G                  HT/PER
                 (F)     (DEG/KT/KT) (MB)    (MI)  (FT/S)
CALUMET HARBOR    33     160/  7/ 12 1010.2F
MICHIGAN CITY     35     140/ 16/ 20   N/A
SAINT JOSEPH      33     140/  2/ 10 1013.9S
SOUTH LAKE BUOY   38 42  180/ 17/ 21 1012.4F         5/ 6

$$
&&



USA.gov is the U.S. government's official web portal to all federal, state and local government web resources and services.